Tracking 29892 objects as of 21-Nov-2024
HD Live streaming from Space Station
objects crossing your sky now

DELTA 1 DEB

Track DELTA 1 DEB now!
10-day predictions


NORAD ID: 14464
Int'l Code: 1978-026GE
Perigee: 877.4 km
Apogee: 965.1 km
Inclination: 99.5 °
Period: 103.3 minutes
Semi major axis: 7292 km
RCS: 0.0075 m2 (small)
Launch date: March 5, 1978
Source: United States (US)
Launch site: AIR FORCE WESTERN TEST RANGE (AFWTR)

Note: This is SATELLITE DEBRIS
Your satellite tracking list
Your tracking list is empty




NASA's NSSDC Master Catalog

Two Line Element Set (TLE):
1 14464U 78026GE  24325.52836606  .00000227  00000-0  20377-3 0  9997
2 14464  99.4802 167.5960 0060093 279.6905 108.4985 13.94154954141009
Source of the keplerian elements: AFSPC